Ozark, AL

12:02 AM CDT on May 26, 2017 (GMT -0500)
Cairns Army Air Field

Weather History for KOZR - April, 2013

Change the Weather History Date:

Tuesday, April 30, 2013

  Actual Average Record
Temperature  
Mean Temperature 72 °F -  
Max Temperature 82 °F 77 °F 93 °F (2012)
Min Temperature 62 °F 56 °F 43 °F (2008)
Cooling Degree Days 7    
Growing Degree Days 22 (Base 50)    
Moisture  
Dew Point 64 °F    
Average Humidity 95    
Maximum Humidity 100    
Minimum Humidity 51    
Precipitation  
Precipitation 0.00 in - - ()
Sea Level Pressure  
Sea Level Pressure 29.98 in    
Wind  
Wind Speed 3 mph (ESE)    
Max Wind Speed 8 mph    
Max Gust Speed -    
Visibility 3 miles    
Events Fog    
Averages and records for this station are not official NWS values.
T = Trace of Precipitation, MM = Missing Value Source: NWS Daily Summary

Daily Weather History Graph

Daily Weather History Graph

Search for Another Location

Airport or City:

Trip Planner

Search our weather history database for the weather conditions in past years. The results will help you decide how hot, cold, wet, or windy it might be!

Date:

Astronomy

Apr. 30, 2013 Rise Set
Actual Time 5:58 AM CDT 7:21 PM CDT
Civil Twilight 5:33 AM CDT 7:47 PM CDT
Nautical Twilight 5:02 AM CDT 8:18 PM CDT
Astronomical Twilight 4:30 AM CDT 8:50 PM CDT
Moon No Moon Rise 10:30 AM CDT (4/30)
Length of Visible Light 14h 14m
Length of Day
13h 22m
Waning Gibbous, 70% of the Moon is Illuminated
Apr 30
Waning Gibbous
May 2
Last Quarter
May 9
New
May 17
First Quarter
May 24
Full

Hourly Weather History & Observations

Time (CDT) Temp. Heat Index Dew Point Humidity Pressure Visibility Wind Dir Wind Speed Gust Speed Precip Events Conditions
12:18 AM 66.2 °F - 64.4 °F 94% 29.96 in 1.0 mi South 3.5 mph - N/A   Overcast
12:23 AM 66.2 °F - 64.4 °F 94% 29.96 in 0.8 mi SSW 3.5 mph - N/A   Overcast
12:28 AM 66.2 °F - 64.4 °F 94% 29.96 in 0.8 mi South 4.6 mph - N/A   Mist
12:33 AM 66.2 °F - 64.4 °F 94% 29.96 in 0.5 mi SSW 2.3 mph - N/A Fog Fog
12:38 AM 66.2 °F - 66.2 °F 100% 29.96 in 0.5 mi SW 4.6 mph - N/A Fog Fog
12:43 AM 66.2 °F - 64.4 °F 94% 29.96 in 0.8 mi SSW 2.3 mph - N/A   Mist
12:48 AM 66.2 °F - 64.4 °F 94% 29.96 in 1.2 mi SSW 4.6 mph - N/A   Overcast
12:53 AM 66.2 °F - 64.4 °F 94% 29.95 in 0.8 mi SSW 3.5 mph - N/A   Mist
12:58 AM 66.2 °F - 64.4 °F 94% 29.96 in 0.5 mi Calm Calm - N/A Fog Fog
1:03 AM 66.2 °F - 64.4 °F 94% 29.95 in 0.5 mi Calm Calm - N/A Fog Fog
1:13 AM 64.4 °F - 64.4 °F 100% 29.95 in 0.5 mi WSW 1.2 mph - N/A Fog Fog
1:23 AM 64.4 °F - 64.4 °F 100% 29.95 in 0.5 mi Calm Calm - N/A Fog Fog
1:28 AM 64.4 °F - 64.4 °F 100% 29.95 in 0.2 mi Calm Calm - N/A Fog Fog
1:38 AM 64.4 °F - 64.4 °F 100% 29.95 in 0.5 mi SE 2.3 mph - N/A Fog Fog
1:43 AM 64.4 °F - 64.4 °F 100% 29.95 in 0.5 mi SE 1.2 mph - N/A Fog Fog
1:48 AM 64.4 °F - 64.4 °F 100% 29.95 in 0.8 mi SSE 2.3 mph - N/A   Mist
1:53 AM 64.4 °F - 64.4 °F 100% 29.95 in 0.5 mi South 2.3 mph - N/A Fog Fog
1:58 AM 64.4 °F - 64.4 °F 100% 29.96 in 0.5 mi SSE 2.3 mph - N/A Fog Fog
2:03 AM 64.4 °F - 64.4 °F 100% 29.95 in 0.5 mi Calm Calm - N/A Fog Fog
2:08 AM 64.4 °F - 64.4 °F 100% 29.95 in 0.5 mi SSE 1.2 mph - N/A Fog Fog
2:18 AM 64.4 °F - 64.4 °F 100% 29.95 in 0.8 mi South 2.3 mph - N/A   Mist
2:23 AM 64.4 °F - 64.4 °F 100% 29.95 in 1.2 mi South 2.3 mph - N/A   Overcast
2:28 AM 64.4 °F - 64.4 °F 100% 29.95 in 1.5 mi South 3.5 mph - N/A   Overcast
2:43 AM 64.4 °F - 64.4 °F 100% 29.95 in 0.8 mi SE 3.5 mph - N/A   Overcast
2:48 AM 64.4 °F - 64.4 °F 100% 29.95 in 0.8 mi SE 4.6 mph - N/A   Mist
2:58 AM 64.4 °F - 64.0 °F 99% 29.95 in 0.5 mi South 2.3 mph - N/A Fog Fog
3:03 AM 64.4 °F - 64.4 °F 100% 29.95 in 0.5 mi South 2.3 mph - N/A Fog Fog
3:18 AM 64.4 °F - 64.4 °F 100% 29.95 in 0.5 mi ESE 1.2 mph - N/A Fog Fog
3:28 AM 64.4 °F - 64.4 °F 100% 29.96 in 0.5 mi SE 2.3 mph - N/A Fog Fog
3:48 AM 64.4 °F - 64.4 °F 100% 29.96 in 0.2 mi East 2.3 mph - N/A Fog Fog
3:58 AM 64.0 °F - 64.0 °F 100% 29.96 in 0.2 mi East 2.3 mph - N/A Fog Fog
4:03 AM 64.4 °F - 64.4 °F 100% 29.96 in 0.5 mi ESE 2.3 mph - N/A Fog Fog
4:13 AM 64.4 °F - 64.4 °F 100% 29.96 in 0.5 mi Calm Calm - N/A Fog Fog
4:18 AM 64.4 °F - 64.4 °F 100% 29.96 in 0.5 mi SE 2.3 mph - N/A Fog Fog
4:23 AM 64.4 °F - 64.4 °F 100% 29.96 in 0.8 mi ESE 1.2 mph - N/A   Mist
4:28 AM 64.4 °F - 64.4 °F 100% 29.96 in 0.8 mi SE 1.2 mph - N/A   Mist
4:33 AM 62.6 °F - 62.6 °F 100% 29.96 in 1.0 mi Calm Calm - N/A   Mist
4:38 AM 62.6 °F - 62.6 °F 100% 29.96 in 0.8 mi Calm Calm - N/A   Mist
4:43 AM 62.6 °F - 62.6 °F 100% 29.96 in 0.5 mi Calm Calm - N/A Fog Fog
4:48 AM 62.6 °F - 62.6 °F 100% 29.96 in 0.5 mi ENE 1.2 mph - N/A Fog Fog
4:58 AM 63.3 °F - 63.3 °F 100% 29.96 in 0.5 mi NNE 1.2 mph - N/A Fog Fog
5:08 AM 62.6 °F - 62.6 °F 100% 29.96 in 0.2 mi East 1.2 mph - N/A Fog Fog
5:18 AM 62.6 °F - 62.6 °F 100% 29.96 in 0.5 mi Calm Calm - N/A Fog Fog
5:33 AM 62.6 °F - 62.6 °F 100% 29.97 in 0.5 mi East 2.3 mph - N/A Fog Fog
5:38 AM 62.6 °F - 62.6 °F 100% 29.97 in 0.5 mi Calm Calm - N/A Fog Fog
5:43 AM 62.6 °F - 62.6 °F 100% 29.97 in 0.2 mi ENE 1.2 mph - N/A Fog Fog
5:53 AM 62.6 °F - 62.6 °F 100% 29.97 in 0.2 mi East 2.3 mph - N/A Fog Fog
5:58 AM 62.8 °F - 62.8 °F 100% 29.99 in 0.2 mi East 2.3 mph - N/A Fog Fog
6:03 AM 62.6 °F - 62.6 °F 100% 29.98 in 0.2 mi ENE 2.3 mph - N/A Fog Fog
6:08 AM 62.6 °F - 62.6 °F 100% 29.98 in 0.2 mi NE 3.5 mph - N/A Fog Fog
6:23 AM 62.6 °F - 62.6 °F 100% 29.98 in 0.2 mi ENE 3.5 mph - N/A Fog Fog
6:43 AM 62.6 °F - 62.6 °F 100% 29.99 in 0.2 mi NE 2.3 mph - N/A Fog Fog
6:53 AM 62.6 °F - 62.6 °F 100% 30.00 in 0.2 mi East 3.5 mph - N/A Fog Fog
6:58 AM 62.6 °F - 62.6 °F 100% 30.01 in 0.2 mi ENE 3.5 mph - N/A Fog Fog
7:03 AM 62.6 °F - 62.6 °F 100% 30.00 in 0.2 mi ENE 4.6 mph - N/A Fog Fog
7:13 AM 62.6 °F - 62.6 °F 100% 30.00 in 0.2 mi NE 4.6 mph - N/A Fog Fog
7:18 AM 62.6 °F - 62.6 °F 100% 30.00 in 0.2 mi ENE 4.6 mph - N/A Fog Fog
7:33 AM 62.6 °F - 62.6 °F 100% 30.00 in 0.2 mi NE 4.6 mph - N/A Fog Fog
7:38 AM 62.6 °F - 62.6 °F 100% 30.00 in 0.2 mi ENE 4.6 mph - N/A Fog Fog
7:48 AM 62.6 °F - 62.6 °F 100% 30.01 in 0.2 mi ENE 2.3 mph - N/A Fog Fog
7:53 AM 62.6 °F - 62.6 °F 100% 30.01 in 0.5 mi East 4.6 mph - N/A Fog Fog
7:58 AM 63.5 °F - 63.5 °F 100% 30.01 in 0.2 mi East 4.6 mph - N/A Fog Fog
8:03 AM 64.4 °F - 64.4 °F 100% 30.01 in 0.5 mi East 3.5 mph - N/A Fog Fog
8:08 AM 64.4 °F - 64.4 °F 100% 30.01 in 0.8 mi ENE 4.6 mph - N/A   Mist
8:13 AM 62.6 °F - 62.6 °F 100% 30.01 in 1.0 mi ENE 3.5 mph - N/A   Overcast
8:18 AM 62.6 °F - 62.6 °F 100% 30.01 in 0.8 mi ENE 3.5 mph - N/A   Overcast
8:23 AM 62.6 °F - 62.6 °F 100% 30.01 in 0.5 mi ENE 3.5 mph - N/A Fog Fog
8:28 AM 62.6 °F - 62.6 °F 100% 30.01 in 0.5 mi ENE 2.3 mph - N/A Fog Fog
8:38 AM 64.4 °F - 64.4 °F 100% 30.01 in 1.0 mi East 4.6 mph - N/A   Overcast
8:43 AM 64.4 °F - 64.4 °F 100% 30.01 in 3.0 mi Variable 4.6 mph - N/A   Overcast
8:48 AM 64.4 °F - 64.4 °F 100% 30.01 in 2.0 mi ENE 4.6 mph - N/A   Overcast
8:53 AM 64.4 °F - 64.4 °F 100% 30.01 in 1.2 mi ENE 6.9 mph - N/A   Overcast
8:58 AM 64.4 °F - 64.4 °F 100% 30.01 in 2.5 mi East 6.9 mph - N/A   Overcast
9:03 AM 64.4 °F - 64.4 °F 100% 30.01 in 3.0 mi East 5.8 mph - N/A   Overcast
9:43 AM 66.2 °F - 66.2 °F 100% 30.02 in 10.0 mi ENE 6.9 mph - N/A   Overcast
9:53 AM 66.2 °F - 66.2 °F 100% 30.02 in 10.0 mi East 3.5 mph - N/A   Overcast
10:01 AM 66.2 °F - 66.2 °F 100% 30.03 in 10.0 mi East 5.8 mph - N/A   Overcast
10:10 AM 68.0 °F - 68.0 °F 100% 30.02 in 10.0 mi ENE 5.8 mph - N/A   Overcast
10:23 AM 68.0 °F - 68.0 °F 100% 30.02 in 10.0 mi Variable 4.6 mph - N/A   Overcast
10:39 AM 69.8 °F - 69.8 °F 100% 30.02 in 10.0 mi Variable 5.8 mph - N/A   Overcast
10:56 AM 69.8 °F - 69.8 °F 100% 30.02 in 10.0 mi Variable 2.3 mph - N/A   Mostly Cloudy
11:13 AM 71.6 °F - 69.8 °F 94% 30.02 in 10.0 mi Variable 4.6 mph - N/A   Mostly Cloudy
11:56 AM 75.2 °F - 66.2 °F 73% 30.00 in 10.0 mi Variable 3.5 mph - N/A   Mostly Cloudy
12:30 PM 77.0 °F - 64.4 °F 65% 29.99 in 10.0 mi Variable 6.9 mph - N/A   Mostly Cloudy
12:56 PM 78.8 °F - 64.4 °F 61% 29.99 in 10.0 mi ESE 2.3 mph - N/A   Mostly Cloudy
1:56 PM 80.6 °F 82.3 °F 64.4 °F 58% 29.99 in 10.0 mi Variable 5.8 mph - N/A   Mostly Cloudy
2:56 PM 80.6 °F 81.8 °F 62.6 °F 54% 29.96 in 10.0 mi Variable 5.8 mph - N/A   Scattered Clouds
3:56 PM 82.4 °F 83.4 °F 62.6 °F 51% 29.95 in 10.0 mi East 8.1 mph - N/A   Partly Cloudy
4:56 PM 80.6 °F 82.3 °F 64.4 °F 58% 29.95 in 10.0 mi East 6.9 mph - N/A   Partly Cloudy
5:56 PM 78.8 °F - 62.6 °F 57% 29.95 in 10.0 mi ESE 5.8 mph - N/A   Partly Cloudy
6:56 PM 75.2 °F - 66.2 °F 73% 29.95 in 10.0 mi NE 4.6 mph - N/A   Clear
7:58 PM 72.7 °F - 65.7 °F 79% 29.99 in 10.0 mi South 5.8 mph - N/A   Clear
8:58 PM 71.1 °F - 64.8 °F 80% 29.99 in 10.0 mi ENE 2.3 mph - N/A   Clear
9:58 PM 70.3 °F - 64.4 °F 81% 30.00 in 10.0 mi East 2.3 mph - N/A   Partly Cloudy
10:58 PM 68.5 °F - 64.8 °F 88% 30.00 in 10.0 mi ENE 4.6 mph - N/A   Mostly Cloudy
11:58 PM 67.3 °F - 64.0 °F 89% 30.00 in 10.0 mi NE 5.8 mph - N/A   Partly Cloudy